EHI
0 0 0 0 0 0 0 0 0 1 3 5 8 11 12 12 15 18 19 18 17 14 13 14 14 14 16 17 18 17 17 18 17 15 12 12 11 10 11 13 13 13 12 11
0 0 0 0 0 0 0 0 0 0 1 4 8 13 14 15 16 17 18 17 14 13 14 15 14 14 14 16 17 17 17 16 15 13 11 10 10 9 9 10 10 9 10 10
0 0 0 0 0 0 0 0 0 0 0 4 10 14 15 16 17 17 18 17 15 14 14 14 13 12 12 13 15 16 15 14 12 11 11 9 8 7 7 6 5 5 5 5
0 0 0 0 0 0 0 0 0 1 3 8 13 15 15 16 17 17 19 19 17 15 14 13 12 13 13 14 15 14 13 12 11 11 10 9 6 5 4 3 2 1 1 1
0 0 0 0 0 0 0 1 1 4 8 12 16 17 14 13 16 17 18 19 17 15 14 14 14 16 16 15 14 11 10 9 8 8 8 7 4 2 1 1 1 0 0 1
0 0 0 0 0 0 1 2 2 4 9 13 16 17 14 12 14 16 18 17 15 14 13 13 14 15 14 12 10 8 7 6 5 5 5 4 2 0 0 0 0 0 0 1
0 0 0 0 0 0 2 2 2 3 7 10 14 16 16 16 17 18 18 17 15 13 11 10 11 10 8 6 5 4 4 4 3 3 3 2 1 0 0 0 0 0 0 1
0 0 0 0 0 0 2 3 3 5 7 9 12 16 18 21 22 21 18 16 15 13 10 7 6 5 3 3 3 3 3 3 3 3 2 1 0 0 0 0 0 0 0 1
0 0 0 0 1 1 2 3 5 7 9 10 12 16 19 22 22 19 16 15 14 13 9 6 3 1 1 1 2 2 2 2 2 1 1 0 0 0 0 0 0 0 0 0
1 1 1 1 2 3 4 5 7 8 9 10 13 16 19 19 17 15 14 13 12 12 9 5 2 0 0 0 1 1 1 1 1 0 0 0 0 0 0 0 0 0 0 0
2 2 2 3 3 5 6 9 11 11 11 12 15 17 18 16 14 14 14 12 11 10 7 3 0 0 0 0 0 0 0 0 0 0 0 0 0 0 0 0 0 0 0 0
1 1 3 3 3 4 7 10 14 16 15 15 17 18 17 15 15 15 14 13 11 9 6 2 0 0 0 0 0 0 0 0 0 0 0 0 0 0 0 0 0 0 0 0
0 1 3 3 3 4 6 9 12 15 15 14 16 18 18 17 16 16 15 14 11 9 6 3 1 1 1 0 0 0 0 0 0 0 0 0 0 0 0 0 0 0 0 0
1 2 4 3 2 3 4 6 8 10 10 12 15 18 19 18 18 17 15 13 10 8 6 4 2 2 1 0 0 1 0 0 0 0 0 0 0 0 0 0 0 0 0 0
1 3 3 2 1 1 2 4 6 6 6 9 14 17 19 19 17 16 15 13 10 8 5 3 1 1 1 0 0 0 0 0 0 0 0 0 0 1 1 0 0 0 0 0
1 2 3 2 1 1 1 2 4 4 5 7 11 15 17 17 17 16 14 11 8 6 4 2 1 0 0 0 0 0 0 0 0 0 0 0 0 1 2 1 0 0 0 0
1 2 3 4 3 2 2 3 3 3 4 6 9 11 13 15 15 14 13 10 6 4 3 2 0 0 0 0 0 0 0 0 0 0 0 0 0 1 1 1 0 0 0 0
2 3 5 4 3 3 3 3 3 3 3 5 7 9 11 12 13 12 11 9 5 3 3 2 0 0 0 0 0 1 0 0 0 0 0 0 0 0 0 0 0 0 0 0
2 4 4 3 2 2 2 3 3 3 4 5 7 8 9 9 10 10 10 9 6 4 3 1 0 0 0 0 0 0 0 0 0 0 0 0 0 0 0 0 0 0 0 0
1 1 2 2 2 2 2 2 3 4 4 6 7 7 7 7 8 9 9 9 7 5 3 1 0 0 0 0 0 0 0 0 0 0 0 0 0 0 0 0 0 0 0 0
1 1 1 2 3 3 3 3 4 5 6 6 7 6 6 6 7 8 9 8 6 4 2 1 1 1 0 0 0 0 0 0 0 0 0 0 0 0 0 0 0 0 0 0
2 2 3 3 3 3 3 3 4 5 6 6 6 6 6 6 5 5 6 5 3 2 2 2 2 1 0 0 0 0 0 0 0 0 0 0 0 0 0 0 0 0 0 0
3 3 3 3 3 3 2 1 2 4 5 5 5 5 5 4 2 2 2 2 1 1 3 3 2 1 0 0 0 0 0 0 0 0 0 0 0 0 0 0 0 0 0 0
2 2 2 2 2 2 1 0 2 4 5 4 4 4 3 2 1 0 0 0 0 1 3 3 1 0 0 0 0 0 0 0 0 0 0 0 0 0 0 0 0 0 0 0
2 2 1 1 1 1 1 1 2 4 4 4 4 3 2 2 1 0 0 0 0 1 2 2 1 0 0 0 0 0 0 0 0 0 0 0 0 0 0 0 0 0 0 0
2 2 2 2 2 2 2 3 3 3 3 2 1 1 1 1 1 0 0 0 0 0 1 1 0 0 0 0 0 0 0 0 0 0 0 0 0 0 0 0 0 0 0 0
2 3 3 3 3 3 3 3 3 3 2 1 0 0 0 0 0 0 0 0 0 0 0 0 0 0 0 0 0 0 0 0 0 0 0 0 0 0 0 0 0 0 0 0
Wind_Speed
3 3 2 3 3 2 2 5 6 7 6 7 7 8 8 8 8 7 7 7 7 6 5 5 5 4 4 4 4 5 5 4 3 2 2 2 2 1 2 1 1 1 1 0
3 3 4 3 4 2 1 1 3 4 4 5 5 6 7 9 10 9 8 8 7 7 7 6 5 4 4 4 4 5 5 4 3 2 2 2 2 2 2 2 2 2 2 1
3 5 4 4 4 1 1 1 4 4 6 4 4 7 10 10 10 10 9 9 8 7 6 6 6 6 5 4 4 5 4 3 3 3 3 2 2 2 2 2 2 2 2 2
0 2 2 6 3 2 2 1 1 3 4 7 8 7 7 9 10 10 9 9 8 7 6 6 6 6 5 5 5 4 4 3 3 3 3 2 2 2 1 1 1 1 1 1
2 1 4 5 4 1 1 3 2 3 4 6 7 6 2 4 8 9 9 9 7 7 7 7 7 7 7 5 5 4 3 3 3 3 3 2 1 1 1 1 1 1 1 1
3 2 4 6 6 3 3 2 3 1 5 6 8 5 4 4 6 8 8 7 7 6 7 7 6 7 7 6 5 4 3 3 2 3 2 2 1 0 0 0 1 1 2 2
3 3 5 6 6 3 2 5 4 2 4 4 4 6 6 7 6 7 8 8 8 7 6 6 6 7 7 5 4 3 2 2 2 2 2 2 1 1 1 1 2 2 2 2
2 3 6 4 2 2 5 4 2 2 3 4 3 5 7 8 7 8 8 8 8 7 6 5 6 7 6 4 3 3 4 3 2 1 1 2 2 1 2 2 2 2 2 2
6 6 6 3 2 3 3 2 2 2 3 5 6 7 8 7 8 8 8 7 6 7 6 4 4 6 6 3 4 4 4 2 1 1 1 1 2 2 1 2 1 1 1 1
1 4 3 2 1 1 1 1 1 3 5 7 6 7 8 8 8 8 7 7 7 7 7 5 4 5 5 4 4 5 3 2 1 1 1 2 2 2 2 1 1 1 1 1
2 4 4 4 2 1 2 4 4 4 4 6 7 6 8 8 8 8 7 6 7 7 7 6 4 4 4 4 5 4 3 2 1 1 1 1 1 1 1 1 2 2 1 1
4 5 3 4 3 1 4 4 4 5 4 4 6 7 7 8 7 8 8 7 7 7 7 6 5 4 3 3 5 5 3 2 1 1 1 1 1 1 2 1 0 1 2 2
5 4 2 2 1 1 3 3 3 4 5 4 4 7 8 7 6 7 7 7 8 7 7 6 6 4 3 4 5 4 3 2 1 1 1 1 1 1 1 3 3 3 2 2
3 0 2 2 1 1 3 4 4 4 3 4 6 8 8 7 7 7 7 7 7 7 6 5 5 4 3 4 4 4 3 3 2 1 1 1 1 1 1 1 1 2 3 3
2 1 2 0 1 2 3 4 4 4 4 4 5 8 9 9 8 7 6 7 7 6 5 5 4 3 3 4 4 4 3 2 2 1 1 1 2 1 1 1 1 1 1 3
1 1 2 2 2 2 2 3 4 2 2 3 4 5 6 7 7 6 6 7 7 6 5 5 4 3 3 3 3 3 2 3 3 2 1 1 1 1 1 1 1 1 1 1
2 1 1 1 1 2 2 3 3 2 3 4 4 5 6 6 6 5 4 5 6 6 5 5 4 3 3 3 3 2 2 2 2 2 1 2 1 1 2 2 1 1 2 2
5 5 5 4 3 2 2 3 3 4 4 5 6 7 6 6 6 6 5 5 5 3 3 4 4 4 3 3 3 2 2 1 1 2 2 1 1 1 1 1 2 2 2 1
3 3 3 3 3 3 2 2 3 4 4 5 6 6 6 5 5 5 5 5 6 4 4 3 5 4 3 3 3 2 2 2 2 2 2 2 1 1 1 1 1 1 1 1
3 3 3 2 3 3 3 2 3 3 4 5 6 6 5 4 4 4 4 4 5 5 5 4 4 3 3 3 3 2 2 2 3 2 2 1 1 2 2 1 1 1 1 1
3 3 2 2 2 2 2 3 3 4 4 5 6 6 5 5 5 5 5 3 4 4 4 5 4 3 3 3 3 2 2 2 2 2 2 2 2 1 1 1 1 1 1 1
3 3 2 2 2 1 1 2 4 5 5 5 5 5 5 4 4 3 4 4 4 5 4 3 3 4 5 4 2 2 2 2 2 2 2 2 2 2 1 1 1 1 1 1
3 3 2 2 2 2 1 1 3 4 5 5 5 5 5 4 4 4 3 3 3 5 4 3 4 6 6 3 2 2 2 2 2 2 2 2 2 2 2 2 2 1 1 1
2 2 2 1 2 3 2 1 2 2 4 4 3 4 4 3 2 2 3 4 5 5 3 3 5 5 4 2 2 2 2 2 2 2 2 2 2 2 2 2 1 2 2 1
2 1 1 2 1 1 2 2 2 2 2 2 3 3 3 3 3 2 2 3 4 4 2 3 5 5 3 3 3 3 2 2 2 2 2 2 2 2 1 1 1 1 1 1
2 1 0 1 2 2 2 2 2 1 2 2 1 1 2 2 3 3 3 3 4 4 3 2 2 3 2 3 3 3 2 2 2 2 2 2 2 1 1 1 1 1 1 1
2 1 1 1 1 1 2 2 2 1 1 2 2 1 2 2 2 3 3 3 3 2 2 2 2 3 3 3 3 3 2 2 2 2 2 2 2 2 2 2 1 1 1 1
Wind_Direction
224 232 255 252 259 263 189 187 182 213 202 215 196 179 171 160 153 146 148 147 148 142 138 133 127 124 128 126 119 121 118 116 123 137 124 109 89 59 37 37 32 10 33 329
339 334 326 316 287 261 244 195 189 169 226 228 186 153 150 152 153 154 155 152 149 142 140 141 136 133 132 128 125 119 121 128 132 117 99 91 74 52 42 29 16 21 25 19
296 311 1 320 293 220 184 202 171 196 221 186 163 165 167 163 161 159 158 158 154 153 153 151 149 146 145 137 125 119 121 122 121 112 96 83 70 56 43 27 23 17 16 22
176 19 248 254 290 94 109 311 201 192 191 167 166 166 162 158 158 158 159 158 156 155 147 146 145 136 129 122 121 117 114 113 114 111 103 94 80 64 33 18 20 15 358 350
129 196 278 295 311 352 102 302 311 162 157 148 130 93 80 164 152 153 155 156 157 153 141 132 132 131 123 118 118 116 117 117 118 119 115 108 90 60 9 31 20 3 350 17
136 153 241 261 285 301 101 323 310 119 148 146 126 128 205 173 148 145 142 138 136 131 121 123 130 130 125 125 124 132 137 137 135 129 129 136 140 102 7 63 24 19 29 30
162 194 254 264 296 19 100 239 271 195 157 140 154 175 167 146 141 138 133 128 125 122 123 130 130 125 124 127 143 153 129 118 118 125 140 145 118 80 70 53 42 35 35 11
159 182 249 288 18 122 216 233 205 169 155 130 140 131 127 130 130 127 125 123 125 124 124 123 125 128 131 142 153 127 114 111 116 125 140 108 101 77 73 70 55 34 27 5
189 212 240 261 214 235 192 173 193 172 162 127 128 133 130 130 133 131 132 130 126 125 119 110 117 127 132 142 130 117 111 118 121 97 73 92 103 91 69 66 70 45 39 4
283 277 280 299 312 318 201 146 154 154 139 131 131 141 135 134 135 132 130 131 127 124 123 120 119 119 128 131 122 113 112 110 99 85 54 53 76 86 91 92 84 61 39 342
294 291 326 336 328 338 33 68 75 83 112 131 131 136 136 135 138 138 134 130 128 133 132 129 127 122 121 120 117 115 115 114 93 78 88 63 66 99 134 177 176 168 205 220
237 250 225 264 285 88 87 70 88 96 78 100 126 133 133 136 139 138 135 131 130 134 135 139 138 132 130 132 132 130 128 134 144 138 116 108 111 48 30 62 347 184 193 189
232 255 231 256 320 71 103 86 79 95 114 119 122 129 128 128 128 129 133 135 139 143 145 144 144 149 161 155 141 140 145 154 155 152 147 142 138 133 359 349 1 3 349 337
249 9 351 314 288 45 93 87 78 74 91 117 128 126 123 122 123 131 145 152 147 140 141 143 146 159 167 152 145 148 149 154 157 171 171 168 177 181 170 174 332 328 332 343
304 208 205 229 59 65 87 90 81 72 78 78 115 128 131 135 138 147 150 143 134 132 138 142 147 173 171 152 151 156 156 168 166 166 168 182 187 183 185 202 224 286 337 343
283 31 94 108 130 127 109 108 107 98 108 102 111 127 135 138 137 134 138 139 141 152 159 155 164 185 163 148 151 159 176 177 168 168 172 175 176 173 187 203 212 225 258 273
178 199 164 157 176 150 138 133 132 155 144 128 135 135 123 118 122 132 142 148 152 159 162 164 177 175 156 148 145 157 184 192 173 165 179 183 182 190 193 188 200 223 244 239
197 199 191 179 185 166 149 144 150 162 168 157 145 137 135 146 160 165 162 151 140 140 164 173 166 149 147 147 151 161 171 180 176 177 177 172 178 202 200 192 197 220 253 256
184 173 172 170 168 153 158 171 166 171 168 154 145 147 158 170 170 167 158 152 157 172 200 188 162 159 166 175 156 160 169 174 173 174 176 172 162 194 199 199 206 219 220 224
147 141 145 149 137 139 156 174 163 161 161 148 141 142 154 164 159 161 158 171 191 192 188 178 166 169 178 188 167 159 163 172 179 183 184 183 197 214 212 202 194 189 202 215
132 125 123 128 128 130 146 163 165 164 160 149 147 162 172 174 170 165 160 184 217 189 171 167 170 181 184 183 168 162 165 172 178 180 179 185 197 208 214 221 214 206 210 220
133 131 128 118 120 136 150 155 158 152 149 151 156 165 164 169 171 169 185 199 203 181 169 174 182 188 183 175 169 170 168 169 173 172 174 182 188 197 211 222 229 233 223 213
124 129 131 135 143 139 97 129 149 148 155 162 165 171 173 176 172 167 193 215 185 176 170 181 190 187 183 172 171 172 175 178 180 176 184 196 204 204 208 221 230 235 230 218
103 104 118 113 101 95 92 122 139 153 157 155 157 162 159 153 161 189 180 170 171 166 169 186 188 183 174 168 170 175 181 187 192 187 190 196 206 205 199 209 227 234 227 220
114 94 99 113 120 152 158 135 115 122 134 136 144 152 154 155 161 173 152 151 157 158 166 187 191 188 175 170 174 179 184 190 182 175 181 179 182 190 203 215 220 220 218 211
115 108 145 167 163 152 135 127 137 165 154 143 147 160 149 142 144 145 142 154 162 164 171 178 175 178 175 174 175 175 180 185 183 181 176 173 175 186 197 200 202 200 202 188
80 81 66 54 53 92 120 126 127 146 159 154 152 158 144 137 135 135 134 146 160 167 173 181 172 169 171 176 177 176 178 181 179 175 168 166 168 178 187 186 177 169 148 129